Hourly Data Report for June 04, 2021

SANIRAJAK AIRPORT
NUNAVUT
Current Station Operator: NAVCAN

68°46'33.000" N
81°14'33.000" W
9.10 m
2402354
71293
YUX

Download Data

Hourly Data (June 2021)
Hourly Data Report for June 4, 2021
TIME
LST
Temp Definition
°C
Dew Point Definition
°C
Rel Hum Definition
%
Precip. Amount Definition
mm

Wind Dir Definition
10's deg

Wind Spd Definition
km/h
Visibility Definition
km
Stn Press Definition
kPa
Hmdx Definition


Wind Chill Definition


Weather Definition


00:00 -0.9 -1.3 97 0.0 36 17 16.1 100.42   -6 Snow
01:00 -1.2 -1.6 97 0.0 36 18 16.1 100.43   -6 Snow
02:00 -1.6 -2.2 96 0.0 35 22 4.0 100.43   -8 Snow
03:00 -1.7 -2.1 97 0.0 35 21 2.8 100.43   -8 Snow
04:00 -1.9 -2.3 97 0.0 34 18 12.9 100.44   -7 Snow
05:00 -1.8 -2.2 97 0.0 34 17 1.6 100.46   -7 Snow
06:00 -1.4 -1.8 97 0.0 34 15 4.0 100.46   -6 Snow
07:00 -0.6 -1.2 96 0.0 2 11 2.8 100.47   -4 Snow
08:00 -0.3 -0.9 96 0.0 7 5 11.3 100.48   -2 Snow
09:00 0.1 -0.7 95 0.0 5 5 11.3 100.47     Rain
10:00 0.4 -0.3 95 0.0 6 8 1.6 100.46     Rain, Fog
11:00 0.9 -0.4 91 0.0 5 8 3.6 100.46     Fog
12:00 0.7 -1.0 88 0.0 7 9 16.1 100.46     LegendNANA
13:00 0.9 -1.2 86 0.0 6 8 16.1 100.47     LegendNANA
14:00 0.8 -1.3 86 0.0 6 9 16.1 100.51     Rain
15:00 0.8 -1.1 87 0.0 4 11 16.1 100.52     LegendNANA
16:00 0.2 -1.1 91 0.0 3 13 16.1 100.54     LegendNANA
17:00 0.0 -1.0 93 0.0 3 15 16.1 100.55   -4 LegendNANA
18:00 -0.3 -1.2 94 0.0 2 15 16.1 100.56   -5 LegendNANA
19:00 -0.2 -1.3 92 0.0 1 15 16.1 100.55   -5 LegendNANA
20:00 -0.3 -1.3 93 0.0 1 18 16.1 100.53   -5 LegendNANA
21:00 -0.5 -1.4 94 0.0 1 17 16.1 100.52   -5 LegendNANA
22:00 -0.3 -1.6 91 0.0 36 17 16.1 100.50   -5 LegendNANA
23:00 -0.5 -1.5 93 0.0 1 18 16.1 100.48   -6 LegendNANA

Notes on Data Quality.

Legend

  • E = Estimated
  • M = Missing
  • NA = Not Available*
  • [empty] = Indicates an unobserved value
Date modified: